Location: Zagreb
(45.8000°N, 16.0000°E)
Time: 14:05:13
(UTC+02:00)

Transit 4A - All Passes

Search period start: 19 July 2024 00:00
Search period end: 29 July 2024 00:00
Orbit: 870 x 973 km, 66.8° (Epoch: 19 July)

Date Brightness Start Highest point End Pass type
(mag) Time Alt. Az. Time Alt. Az. Time Alt. Az.
19 Jul - 00:42:40 10° NNW 00:48:07 35° NE 00:53:40 10° ESE visible
19 Jul - 02:28:51 10° NW 02:34:41 52° WSW 02:40:39 10° S visible
19 Jul - 15:53:08 10° SSE 15:57:39 24° ESE 16:02:12 10° NE daylight
19 Jul - 17:37:45 10° SW 17:43:30 62° NW 17:49:19 10° NNE daylight
19 Jul - 19:27:18 10° WNW 19:31:04 17° NNW 19:34:52 10° N daylight
19 Jul - 23:06:12 10° N 23:09:26 15° NNE 23:12:42 10° ENE visible
20 Jul - 00:51:33 10° NNW 00:57:20 46° NE 01:03:14 10° ESE visible
20 Jul - 02:38:06 10° NW 02:43:34 36° WSW 02:49:08 10° S visible
20 Jul - 16:01:15 10° S 16:06:26 35° ESE 16:11:40 10° NE daylight
20 Jul - 17:47:05 10° WSW 17:52:38 45° NW 17:58:15 10° NNE daylight
20 Jul - 19:37:35 10° NW 19:40:34 14° NNW 19:43:35 10° N daylight
20 Jul - 23:14:56 10° N 23:18:56 18° NNE 23:22:59 10° ENE visible
21 Jul - 01:00:29 10° NNW 01:06:28 64° NE 01:12:35 10° SE visible
21 Jul - 02:47:33 10° NW 02:52:22 25° WSW 02:57:17 10° SSW visible
21 Jul - 16:09:42 10° S 16:15:17 51° ESE 16:20:56 10° NE daylight
21 Jul - 17:56:37 10° WSW 18:01:51 33° NW 18:07:08 10° NNE daylight
21 Jul - 19:48:05 10° NW 19:50:09 12° NNW 19:52:13 10° N daylight
21 Jul - 23:23:43 10° NNW 23:28:22 23° NE 23:33:04 10° E visible
22 Jul - 01:09:28 10° NNW 01:15:32 87° ENE 01:21:44 10° SSE visible
22 Jul - 02:57:20 10° WNW 03:01:06 17° WSW 03:04:56 10° SW visible
22 Jul - 14:37:04 10° ESE 14:38:57 12° E 14:40:51 10° E daylight
22 Jul - 16:18:26 10° SSW 16:24:13 75° ESE 16:30:04 10° NE daylight
22 Jul - 18:06:21 10° W 18:11:08 26° NW 18:15:59 10° NNE daylight
22 Jul - 19:59:04 10° NNW 19:59:47 10° NNW 20:00:29 10° N daylight
22 Jul - 21:47:38 10° N 21:49:12 11° NNE 21:50:46 10° NNE visible
22 Jul - 23:32:33 10° NNW 23:37:42 29° NE 23:42:57 10° E visible
23 Jul - 01:18:31 10° NW 01:24:31 67° WSW 01:30:39 10° SSE visible
23 Jul - 03:08:14 10° W 03:09:46 11° W 03:11:18 10° WSW visible
23 Jul - 14:43:49 10° SE 14:47:37 18° ESE 14:51:26 10° ENE daylight
23 Jul - 16:27:24 10° SW 16:33:13 79° WNW 16:39:06 10° NNE daylight
23 Jul - 18:16:17 10° W 18:20:31 20° NNW 18:24:47 10° NNE daylight
23 Jul - 21:56:11 10° N 21:58:49 13° NNE 22:01:28 10° NE visible
23 Jul - 23:41:23 10° NNW 23:46:58 38° NE 23:52:39 10° ESE visible
24 Jul - 01:27:40 10° NW 01:33:26 47° WSW 01:39:19 10° S visible
24 Jul - 14:51:35 10° SSE 14:56:21 27° ESE 15:01:08 10° NE daylight
24 Jul - 16:36:35 10° SW 16:42:17 56° NW 16:48:04 10° NNE daylight
24 Jul - 18:26:25 10° WNW 18:29:58 16° NNW 18:33:34 10° N daylight
24 Jul - 22:04:53 10° N 22:08:22 16° NNE 22:11:54 10° ENE visible
24 Jul - 23:50:17 10° NNW 23:56:09 51° NE 00:02:09 10° SE visible
25 Jul - 01:36:58 10° NW 01:42:17 33° WSW 01:47:43 10° S visible
25 Jul - 14:59:49 10° S 15:05:08 39° ESE 15:10:32 10° NE daylight
25 Jul - 16:45:59 10° WSW 16:51:26 41° NW 16:56:59 10° NNE daylight
25 Jul - 18:36:45 10° NW 18:39:30 13° NNW 18:42:16 10° N daylight
25 Jul - 22:13:37 10° NNW 22:17:50 19° NNE 22:22:07 10° ENE visible
25 Jul - 23:59:14 10° NNW 00:05:16 70° NE 00:11:26 10° SE visible
26 Jul - 01:46:29 10° WNW 01:51:04 23° WSW 01:55:43 10° SSW visible
26 Jul - 15:08:21 10° SSW 15:14:01 58° ESE 15:19:45 10° NE daylight
26 Jul - 16:55:35 10° WSW 17:00:40 31° NW 17:05:52 10° NNE daylight
26 Jul - 18:47:19 10° NW 18:49:05 11° NNW 18:50:52 10° N daylight
26 Jul - 20:38:14 10° N 20:38:30 10° NNE 20:38:48 10° NNE daylight
26 Jul - 22:22:25 10° NNW 22:27:15 24° NE 22:32:08 10° E visible
27 Jul - 00:08:14 10° NW 00:14:18 85° WSW 00:20:31 10° SSE visible
27 Jul - 01:56:27 10° WNW 01:59:47 15° WSW 02:03:09 10° SW visible
27 Jul - 13:34:57 10° SE 13:37:36 13° ESE 13:40:16 10° ENE daylight
27 Jul - 15:17:10 10° SSW 15:22:57 83° ESE 15:28:51 10° NE daylight
27 Jul - 17:05:22 10° W 17:10:00 24° NW 17:14:42 10° NNE daylight
27 Jul - 20:46:12 10° N 20:48:09 11° NNE 20:50:08 10° NE daylight
27 Jul - 22:31:14 10° NNW 22:36:33 31° NE 22:41:58 10° ESE visible
28 Jul - 00:17:18 10° NW 00:23:16 61° WSW 00:29:21 10° SSE visible
28 Jul - 13:42:08 10° SSE 13:46:16 20° ESE 13:50:27 10° ENE daylight
28 Jul - 15:26:11 10° SW 15:31:58 71° NW 15:37:52 10° NNE daylight
28 Jul - 17:15:21 10° WNW 17:19:23 19° NNW 17:23:30 10° NNE daylight
28 Jul - 20:54:49 10° N 20:57:44 14° NNE 21:00:42 10° NE visible
28 Jul - 22:40:06 10° NNW 22:45:47 41° NE 22:51:36 10° ESE visible
